Location: Ardick
(31.4613°N, 81.4334°W)
Time: 13:44:42
(UTC+00:00)

X-37B - Pass Details

Date: 21 September 2021
Orbit: 342 x 346 km, 45.0° (Epoch: 22 October)

Event Time Altitude Azimuth Distance (km) Brightness Sun altitude
Exits shadow 09:02:41 11° 83° (E) 1,217 4.0 -28.2°
Drops below altitude 10° 09:02:53 10° 80° (E) 1,288 4.1 -28.1°
Enters shadow 09:58:19 -70° 236° (SW) 12,376 8.1 -16.8°
Maximum altitude 10:36:04 25° 332° (NNW) 735 1.8 -8.8°
